FW6829 Weather Reports


time (UTC)temp
C
wind
direction
speed
KPH
gust
KPH
rain 1hr
cm
rain 24hr
cm
rain mn
cm
humidity
%
barometer
mb
20211209094732 -5 135 0.0 19.3 0.00 0.00 0.00 97 555.7
20211209094232 -5 136 0.0 19.3 0.00 0.00 0.00 98 554.7
20211209093732 -5 132 0.0 19.3 0.00 0.00 0.00 98 551.6
20211209093231 -5 133 0.0 19.3 0.00 0.00 0.00 98 558.8
20211209092731 -5 137 0.0 19.3 0.00 0.00 0.00 98 562.0
20211209092230 -5 137 0.0 19.3 0.00 0.00 0.00 97 562.1
20211209091729 -5 137 0.0 19.3 0.00 0.00 0.00 97 562.5
20211209091228 -5 137 0.0 19.3 0.00 0.00 0.00 98 562.8
20211209090728 -5 137 0.0 19.3 0.00 0.00 0.00 97 562.9
20211209090227 -5 137 0.0 19.3 0.00 0.00 0.00 97 562.5
20211209085727 -5 137 0.0 19.3 0.00 0.00 0.00 97 562.5
20211209085226 -5 137 0.0 19.3 0.00 0.00 0.00 97 562.7
20211209084726 -5 142 0.0 19.3 0.00 0.00 0.00 97 563.0
20211209084226 -5 147 0.0 19.3 0.00 0.00 0.00 97 539.0
20211209083726 -5 113 0.0 19.3 0.00 0.00 0.00 97 514.9
20211209083226 -5 129 0.0 19.3 0.00 0.00 0.00 97 542.0
20211209082725 -5 129 0.0 19.3 0.00 0.00 0.00 97 544.2
20211209082225 -5 130 0.0 19.3 0.00 0.00 0.00 97 549.7
20211209081725 -5 135 0.0 19.3 0.00 0.00 0.00 97 557.4
20211209081225 -5 135 0.0 19.3 0.00 0.00 0.00 97 557.8
20211209080725 -5 134 0.0 19.3 0.00 0.00 0.00 97 558.4
20211209080225 -5 146 0.0 19.3 0.00 0.00 0.00 97 582.2
20211209075724 -5 146 0.0 19.3 0.00 0.00 0.00 97 574.8
20211209075224 -5 143 0.0 19.3 0.00 0.00 0.00 97 557.7
20211209074724 -5 129 0.0 19.3 0.00 0.00 0.00 97 537.9
20211209074224 -5 138 0.0 19.3 0.00 0.00 0.00 97 557.5
20211209073724 -5 129 0.0 19.3 0.00 0.00 0.00 97 558.6
20211209073224 -5 176 0.0 19.3 0.00 0.00 0.00 97 575.3
20211209072724 -5 115 0.0 19.3 0.00 0.00 0.00 97 551.6
20211209072223 -5 148 0.0 19.3 0.00 0.00 0.00 97 577.0
20211209071723 -5 147 0.0 19.3 0.00 0.00 0.00 97 559.8
20211209071222 -5 134 0.0 19.3 0.00 0.00 0.00 97 524.1
20211209070722 -5 118 0.0 19.3 0.00 0.00 0.00 97 515.4
20211209070222 -5 125 0.0 19.3 0.00 0.00 0.00 97 525.1
20211209065722 -5 125 0.0 19.3 0.00 0.00 0.00 97 524.9
20211209065222 -5 125 0.0 19.3 0.00 0.00 0.00 97 525.4
20211209064722 -5 124 0.0 19.3 0.00 0.00 0.00 97 525.9
20211209064222 -5 124 0.0 19.3 0.00 0.00 0.00 97 530.1
20211209063722 -5 124 0.0 19.3 0.00 0.00 0.00 97 539.9
20211209063222 -5 129 0.0 19.3 0.00 0.00 0.00 97 543.2
20211209062722 -5 129 0.0 19.3 0.00 0.00 0.00 97 548.9
20211209062221 -5 129 0.0 19.3 0.00 0.00 0.00 97 561.4
20211209061721 -5 143 0.0 19.3 0.00 0.00 0.00 97 585.1
20211209061221 -5 147 0.0 19.3 0.00 0.00 0.00 97 575.3
20211209060720 -5 147 1.6 19.3 0.00 0.00 0.00 97 568.6
20211209060220 -5 142 0.0 19.3 0.00 0.00 0.00 97 548.6
20211209055720 -5 144 1.6 19.3 0.00 0.00 0.00 97 565.7
20211209055220 -5 151 0.0 19.3 0.00 0.00 0.00 97 559.7
20211209054719 -5 129 0.0 19.3 0.00 0.00 0.00 97 543.8
20211209054219 -5 129 0.0 19.3 0.00 0.00 0.00 97 549.3
20211209053718 -5 130 0.0 19.3 0.00 0.00 0.00 97 559.5
20211209053218 -5 133 0.0 19.3 0.00 0.00 0.00 97 581.0
20211209052718 -5 149 0.0 19.3 0.00 0.00 0.00 97 591.3
20211209052218 -5 150 0.0 19.3 0.00 0.00 0.00 97 583.4
20211209051718 -6 135 0.0 19.3 0.00 0.00 0.00 97 564.6
20211209051218 -6 139 0.0 19.3 0.00 0.00 0.00 97 568.1
20211209050717 -6 139 0.0 19.3 0.00 0.00 0.00 97 569.1
20211209050217 -6 139 0.0 19.3 0.00 0.00 0.00 97 571.4
20211209045717 -6 139 0.0 19.3 0.00 0.00 0.00 97 576.6
20211209045217 -6 145 0.0 19.3 0.00 0.00 0.00 97 584.0
20211209044717 -6 139 0.0 19.3 0.00 0.00 0.00 97 568.0
20211209044217 -6 140 0.0 19.3 0.00 0.00 0.00 97 566.9
20211209043716 -6 140 0.0 19.3 0.00 0.00 0.00 97 562.8
20211209043216 -6 140 0.0 19.3 0.00 0.00 0.00 97 554.2
20211209042716 -6 140 0.0 19.3 0.00 0.00 0.00 97 536.1
20211209042215 -6 111 0.0 19.3 0.00 0.00 0.00 97 496.7
20211209041715 -6 107 0.0 19.3 0.00 0.00 0.00 97 517.1
20211209041215 -6 136 0.0 19.3 0.00 0.00 0.00 97 562.6
20211209040715 -6 138 0.0 19.3 0.00 0.00 0.00 97 563.0
20211209040215 -6 146 0.0 19.3 0.00 0.00 0.00 97 558.9
20211209035715 -5 128 0.0 19.3 0.00 0.00 0.00 97 555.9
20211209035215 -5 128 0.0 19.3 0.00 0.00 0.00 97 580.0
20211209034715 -5 151 0.0 19.3 0.00 0.00 0.00 97 613.8
20211209034215 -5 163 0.0 19.3 0.00 0.00 0.00 97 612.9
20211209033714 -6 156 0.0 19.3 0.00 0.00 0.00 97 583.3
20211209033215 -6 137 0.0 19.3 0.00 0.00 0.00 97 582.8
20211209032715 -6 145 0.0 19.3 0.00 0.00 0.00 97 581.2
20211209032215 -6 147 0.0 19.3 0.00 0.00 0.00 97 576.1
20211209031715 -6 147 0.0 19.3 0.00 0.00 0.00 97 558.8
20211209031215 -6 133 0.0 19.3 0.00 0.00 0.00 97 518.5
20211209030714 -6 142 0.0 19.3 0.00 0.00 0.00 97 524.6
20211209030215 -6 94 0.0 19.3 0.00 0.00 0.00 97 484.2
20211209025715 -6 114 0.0 19.3 0.00 0.00 0.00 97 543.4
20211209025215 -6 131 0.0 19.3 0.00 0.00 0.00 97 551.8
20211209024715 -6 134 0.0 19.3 0.00 0.00 0.00 97 560.2
20211209024215 -6 135 0.0 19.3 0.00 0.00 0.00 97 566.7
20211209023715 -6 144 0.0 19.3 0.00 0.00 0.00 97 580.5
20211209023215 -6 146 0.0 19.3 0.00 0.00 0.00 97 578.6
20211209022715 -6 146 0.0 19.3 0.00 0.00 0.00 97 567.2
20211209022214 -6 141 0.0 19.3 0.00 0.00 0.00 97 552.2
20211209021713 -6 129 0.0 19.3 0.00 0.00 0.00 97 563.0
20211209021214 -6 145 0.0 19.3 0.00 0.00 0.00 97 572.8
20211209020714 -6 147 0.0 19.3 0.00 0.00 0.00 97 557.1
20211209020214 -6 124 0.0 19.3 0.00 0.00 0.00 97 519.6
20211209015714 -6 124 0.0 19.3 0.00 0.00 0.00 97 518.1
20211209015213 -6 123 0.0 19.3 0.00 0.00 0.00 97 512.5
20211209014714 -6 118 0.0 19.3 0.00 0.00 0.00 97 506.4
20211209014214 -6 117 0.0 19.3 0.00 0.00 0.00 97 506.5
20211209013714 -6 113 0.0 19.3 0.00 0.00 0.00 97 516.3
20211209013214 -6 122 0.0 19.3 0.00 0.00 0.00 97 544.4
20211209012714 -6 134 0.0 19.3 0.00 0.00 0.00 97 557.8
20211209012214 -6 134 0.0 19.3 0.00 0.00 0.00 97 565.5
20211209011714 -6 137 0.0 19.3 0.00 0.00 0.00 97 578.5
20211209010213 -6 151 0.0 19.3 0.00 0.00 0.00 97 573.0
20211209005712 -6 128 0.0 19.3 0.00 0.00 0.00 96 537.0
20211209005213 -6 128 0.0 19.3 0.00 0.00 0.00 96 539.0
20211209004713 -6 128 0.0 19.3 0.00 0.00 0.00 96 543.0
20211209004213 -6 132 0.0 19.3 0.00 0.00 0.00 96 550.1
20211209003713 -6 132 0.0 19.3 0.00 0.00 0.00 96 554.7
20211209003213 -6 137 0.0 19.3 0.00 0.00 0.00 96 562.4
20211209002712 -6 137 0.0 19.3 0.00 0.00 0.00 96 562.7
20211209002213 -6 137 0.0 19.3 0.00 0.00 0.00 96 563.7
20211209001713 -6 137 0.0 19.3 0.00 0.00 0.00 96 566.3
20211209001213 -6 140 0.0 19.3 0.00 0.00 0.00 96 571.0
20211209000713 -6 140 0.0 19.3 0.00 0.00 0.00 96 571.9
20211209000212 -7 140 0.0 19.3 0.00 0.00 0.00 96 574.1
20211208235712 -7 142 0.0 19.3 0.00 0.00 0.00 96 578.7
20211208235212 -7 144 0.0 19.3 0.00 0.00 0.00 96 579.8
20211208234712 -7 143 0.0 19.3 0.00 0.00 0.00 96 578.6
20211208234211 -7 144 0.0 19.3 0.00 0.00 0.00 96 576.1
20211208233711 -7 144 0.0 19.3 0.00 0.00 0.00 96 567.3
20211208233211 -7 144 0.0 19.3 0.00 0.00 0.00 96 548.8
20211208232710 -7 121 0.0 19.3 0.00 0.00 0.00 96 514.1
20211208232210 -7 121 0.0 19.3 0.00 0.00 0.00 96 514.6
20211208231709 -7 121 0.0 19.3 0.00 0.00 0.00 96 514.8
20211208231209 -7 121 0.0 19.3 0.00 0.00 0.00 96 515.6
20211208230708 -7 121 0.0 19.3 0.00 0.00 0.00 96 517.9
20211208230207 -7 123 0.0 19.3 0.00 0.00 0.00 96 520.0
20211208225707 -7 123 0.0 19.3 0.00 0.00 0.00 96 521.3
20211208225207 -7 123 0.0 19.3 0.00 0.00 0.00 96 523.8
20211208224707 -7 123 0.0 19.3 0.00 0.00 0.00 96 529.9
20211208224206 -7 133 0.0 19.3 0.00 0.00 0.00 96 549.9
20211208223706 -7 133 0.0 19.3 0.00 0.00 0.00 96 550.1
20211208223206 -7 133 0.0 19.3 0.00 0.00 0.00 96 550.1
20211208222706 -7 133 0.0 19.3 0.00 0.00 0.00 96 549.8
20211208222205 -7 133 0.0 19.3 0.00 0.00 0.00 96 550.7
20211208221705 -7 133 0.0 19.3 0.00 0.00 0.00 96 551.5
20211208221205 -7 133 0.0 19.3 0.00 0.00 0.00 96 552.7
20211208220705 -7 133 0.0 19.3 0.00 0.00 0.00 96 554.7
20211208220205 -7 137 0.0 19.3 0.00 0.00 0.00 96 560.3
20211208215705 -7 137 0.0 19.3 0.00 0.00 0.00 96 559.1
20211208215205 -7 137 0.0 19.3 0.00 0.00 0.00 96 556.4
20211208214705 -7 140 0.0 19.3 0.00 0.00 0.00 96 551.5
20211208214205 -7 143 0.0 19.3 0.00 0.00 0.00 96 522.6
20211208213704 -7 117 0.0 19.3 0.00 0.00 0.00 96 500.2
20211208213204 -7 117 0.0 19.3 0.00 0.00 0.00 96 500.3
20211208212704 -7 117 0.0 19.3 0.00 0.00 0.00 96 500.2
20211208212204 -7 117 0.0 19.3 0.00 0.00 0.00 96 500.0
20211208211704 -7 116 0.0 19.3 0.00 0.00 0.00 96 500.0
20211208211204 -7 116 0.0 19.3 0.00 0.00 0.00 96 500.5
20211208210703 -7 116 0.0 19.3 0.00 0.00 0.00 96 500.9
20211208210203 -7 116 0.0 19.3 0.00 0.00 0.00 95 501.7
20211208205703 -7 116 0.0 19.3 0.00 0.00 0.00 95 502.8
20211208205203 -7 116 0.0 19.3 0.00 0.00 0.00 95 506.4
20211208204703 -7 120 0.0 19.3 0.00 0.00 0.00 95 511.7
20211208204203 -7 120 0.0 19.3 0.00 0.00 0.00 95 512.0
20211208203703 -7 120 0.0 19.3 0.00 0.00 0.00 95 512.4
20211208203203 -8 120 0.0 19.3 0.00 0.00 0.00 95 512.9
20211208202702 -8 120 0.0 19.3 0.00 0.00 0.00 95 514.3
20211208202202 -8 120 0.0 19.3 0.00 0.00 0.00 95 516.5
20211208201702 -8 120 0.0 19.3 0.00 0.00 0.00 95 521.6
20211208201202 -8 120 0.0 19.3 0.00 0.00 0.00 95 531.3
20211208200702 -8 122 0.0 19.3 0.00 0.00 0.00 95 551.5
20211208200202 -8 137 0.0 19.3 0.00 0.00 0.00 95 588.8
20211208195701 -8 145 0.0 19.3 0.00 0.00 0.00 95 608.2
20211208195201 -8 161 0.0 19.3 0.00 0.00 0.00 95 631.1
20211208194701 -8 161 0.0 19.3 0.00 0.00 0.00 95 627.3
20211208194200 -8 159 1.6 19.3 0.00 0.00 0.00 95 619.8
20211208193700 -8 156 1.6 19.3 0.00 0.00 0.00 95 613.7
20211208193159 -8 153 1.6 19.3 0.00 0.00 0.00 95 611.9
20211208192659 -8 153 1.6 19.3 0.00 0.00 0.00 95 612.7
20211208192159 -8 163 1.6 19.3 0.00 0.00 0.00 95 615.4
20211208191659 -8 149 1.6 19.3 0.00 0.00 0.00 95 587.6
20211208191159 -8 146 1.6 19.3 0.00 0.00 0.00 95 580.9
20211208190659 -8 145 1.6 19.3 0.00 0.00 0.00 95 573.0
20211208190159 -8 143 1.6 19.3 0.00 0.00 0.00 95 558.7
20211208185659 -8 133 0.0 19.3 0.00 0.00 0.00 95 550.2
20211208185159 -8 133 0.0 19.3 0.00 0.00 0.00 95 549.9
20211208184659 -8 133 0.0 19.3 0.00 0.00 0.00 95 549.4
20211208184159 -8 133 0.0 19.3 0.00 0.00 0.00 94 549.3
20211208183659 -8 133 0.0 19.3 0.00 0.00 0.00 95 550.0
20211208183159 -8 133 0.0 19.3 0.00 0.00 0.00 94 549.9
20211208182659 -8 133 0.0 19.3 0.00 0.00 0.00 94 549.6
20211208182159 -8 133 0.0 19.3 0.00 0.00 0.00 94 549.4
20211208181659 -8 133 0.0 19.3 0.00 0.00 0.00 94 549.4
20211208181159 -8 133 0.0 19.3 0.00 0.00 0.00 94 549.5
20211208180659 -8 133 0.0 19.3 0.00 0.00 0.00 95 549.8
20211208180159 -8 133 0.0 19.3 0.00 0.00 0.00 95 549.9
20211208175659 -8 133 0.0 19.3 0.00 0.00 0.00 95 549.7
20211208175159 -9 133 0.0 19.3 0.00 0.00 0.00 95 550.1
20211208174659 -9 133 0.0 19.3 0.00 0.00 0.00 95 550.2
20211208174159 -9 133 0.0 19.3 0.00 0.00 0.00 95 550.7
20211208173659 -9 134 0.0 19.3 0.00 0.00 0.00 95 550.3
20211208173159 -9 133 0.0 19.3 0.00 0.00 0.00 95 551.4
20211208172659 -9 133 0.0 19.3 0.00 0.00 0.00 95 553.3
20211208172159 -9 134 0.0 19.3 0.00 0.00 0.00 94 557.2
20211208171659 -9 134 0.0 19.3 0.00 0.00 0.00 94 562.4
20211208171159 -9 134 0.0 19.3 0.00 0.00 0.00 94 572.8
20211208170659 -9 148 0.0 19.3 0.00 0.00 0.00 94 596.1
20211208170159 -9 150 0.0 19.3 0.00 0.00 0.00 94 597.8
20211208165659 -9 151 0.0 19.3 0.00 0.00 0.00 94 594.3
20211208165159 -9 151 0.0 19.3 0.00 0.00 0.00 94 583.6
20211208164659 -9 151 0.0 19.3 0.00 0.00 0.00 94 560.4
20211208164159 -9 131 0.0 19.3 0.00 0.00 0.00 94 543.7
20211208163659 -10 131 0.0 19.3 0.00 0.00 0.00 94 543.3
20211208163158 -9 131 0.0 19.3 0.00 0.00 0.00 94 543.0
20211208162658 -10 131 0.0 19.3 0.00 0.00 0.00 94 543.0
20211208162158 -10 131 0.0 19.3 0.00 0.00 0.00 94 543.2
20211208161658 -10 131 0.0 19.3 0.00 0.00 0.00 94 543.3
20211208161158 -10 131 0.0 19.3 0.00 0.00 0.00 94 543.4
20211208160658 -10 131 0.0 19.3 0.00 0.00 0.00 94 543.7
20211208160158 -10 131 0.0 19.3 0.00 0.00 0.00 94 543.9
20211208155658 -10 131 0.0 19.3 0.00 0.00 0.00 94 543.9
20211208155158 -10 131 0.0 19.3 0.00 0.00 0.00 94 544.4
20211208154658 -10 131 0.0 19.3 0.00 0.00 0.00 94 544.8
20211208154158 -10 131 0.0 19.3 0.00 0.00 0.00 94 545.5
20211208153658 -10 131 0.0 19.3 0.00 0.00 0.00 94 546.2
20211208153158 -10 131 0.0 19.3 0.00 0.00 0.00 94 547.5
20211208152657 -10 131 0.0 19.3 0.00 0.00 0.00 94 551.2
20211208152157 -10 134 0.0 19.3 0.00 0.00 0.00 94 559.0
20211208151657 -10 137 0.0 19.3 0.00 0.00 0.00 94 563.0
20211208151157 -10 138 0.0 19.3 0.00 0.00 0.00 94 563.4
20211208150656 -10 138 0.0 19.3 0.00 0.00 0.00 94 563.4
20211208150156 -10 138 0.0 19.3 0.00 0.00 0.00 94 563.6
20211208145656 -10 138 0.0 19.3 0.00 0.00 0.00 94 563.7
20211208145156 -10 138 0.0 19.3 0.00 0.00 0.00 94 564.6
20211208144656 -10 138 0.0 19.3 0.00 0.00 0.00 94 565.5
20211208144156 -10 138 0.0 19.3 0.00 0.00 0.00 94 566.3
20211208143656 -10 138 0.0 19.3 0.00 0.00 0.00 94 566.3
20211208143156 -10 138 0.0 19.3 0.00 0.00 0.00 94 567.9
20211208142656 -10 134 0.0 19.3 0.00 0.00 0.00 94 573.3
20211208142156 -10 147 0.0 19.3 0.00 0.00 0.00 94 584.9
20211208141656 -10 145 0.0 19.3 0.00 0.00 0.00 94 576.8
20211208141156 -10 144 0.0 19.3 0.00 0.00 0.00 94 568.5
20211208140656 -10 134 0.0 19.3 0.00 0.00 0.00 94 550.7
20211208140156 -10 133 0.0 19.3 0.00 0.00 0.00 94 550.5
20211208135656 -10 134 0.0 19.3 0.00 0.00 0.00 93 551.5
20211208135156 -10 134 0.0 19.3 0.00 0.00 0.00 93 551.4
20211208134656 -10 134 0.0 19.3 0.00 0.00 0.00 93 551.0
20211208134156 -10 134 0.0 19.3 0.00 0.00 0.00 93 551.0
20211208133656 -10 133 0.0 19.3 0.00 0.00 0.00 93 550.8
20211208133156 -10 134 0.0 19.3 0.00 0.00 0.00 93 552.5
20211208132656 -10 134 0.0 19.3 0.00 0.00 0.00 93 554.0
20211208132155 -10 134 0.0 19.3 0.00 0.00 0.00 93 556.5
20211208131655 -10 136 0.0 19.3 0.00 0.00 0.00 93 561.5
20211208131155 -11 137 0.0 19.3 0.00 0.00 0.00 93 563.5
20211208130655 -11 138 0.0 19.3 0.00 0.00 0.00 93 564.0
20211208130155 -11 138 0.0 19.3 0.00 0.00 0.00 93 564.7
20211208125655 -11 138 0.0 19.3 0.00 0.00 0.00 93 566.8
20211208125155 -11 139 0.0 19.3 0.00 0.00 0.00 93 568.5
20211208124655 -11 139 0.0 19.3 0.00 0.00 0.00 93 568.9
20211208124155 -11 139 0.0 19.3 0.00 0.00 0.00 93 569.1
20211208123655 -11 139 0.0 19.3 0.00 0.00 0.00 93 569.2
20211208123154 -11 139 0.0 19.3 0.00 0.00 0.00 93 569.1
20211208122654 -11 139 0.0 19.3 0.00 0.00 0.00 93 569.9
20211208122154 -11 139 0.0 19.3 0.00 0.00 0.00 93 570.9
20211208121654 -11 139 0.0 19.3 0.00 0.00 0.00 93 573.7
20211208121154 -11 139 0.0 19.3 0.00 0.00 0.00 93 579.1
20211208120654 -11 135 0.0 19.3 0.00 0.00 0.00 93 593.3
20211208120154 -11 156 0.0 19.3 0.00 0.00 0.00 93 615.4
20211208115654 -11 155 1.6 19.3 0.00 0.00 0.00 93 611.7
20211208115154 -11 156 0.0 19.3 0.00 0.00 0.00 93 606.3
20211208114653 -11 156 0.0 19.3 0.00 0.00 0.00 93 592.4
20211208114153 -11 156 0.0 19.3 0.00 0.00 0.00 93 563.1
20211208113653 -11 126 0.0 19.3 0.00 0.00 0.00 93 527.2
20211208113153 -11 126 0.0 19.3 0.00 0.00 0.00 93 527.3
20211208112652 -11 126 0.0 19.3 0.00 0.00 0.00 93 527.3
20211208112152 -11 126 0.0 19.3 0.00 0.00 0.00 93 527.3
20211208111652 -11 126 0.0 19.3 0.00 0.00 0.00 93 527.8
20211208111151 -11 126 0.0 19.3 0.00 0.00 0.00 93 527.5
20211208110650 -11 126 0.0 19.3 0.00 0.00 0.00 93 527.3
20211208110150 -11 126 0.0 19.3 0.00 0.00 0.00 93 527.2
20211208105650 -11 126 0.0 19.3 0.00 0.00 0.00 93 527.0
20211208105150 -11 126 0.0 19.3 0.00 0.00 0.00 93 526.4
20211208104649 -11 126 0.0 19.3 0.00 0.00 0.00 93 526.1
20211208104149 -11 126 0.0 19.3 0.00 0.00 0.00 92 525.5
20211208103649 -12 126 0.0 19.3 0.00 0.00 0.00 92 523.4
20211208103149 -12 126 0.0 19.3 0.00 0.00 0.00 93 518.4
20211208102649 -12 126 0.0 19.3 0.00 0.00 0.00 92 507.7
20211208102149 -12 120 0.0 19.3 0.00 0.00 0.00 92 485.5
20211208101649 -12 108 0.0 19.3 0.00 0.00 0.00 92 475.0
20211208101149 -12 108 0.0 19.3 0.00 0.00 0.00 92 475.2
20211208100649 -12 108 0.0 19.3 0.00 0.00 0.00 92 475.7
20211208100149 -12 108 0.0 19.3 0.00 0.00 0.00 92 475.8
20211208095649 -12 108 0.0 19.3 0.00 0.00 0.00 92 476.4
20211208095148 -12 108 0.0 19.3 0.00 0.00 0.00 92 477.9